Regional Weather Roundup
Issued by NWS

Home | Current Version | Previous Version | Text Only | Print | Product List | Glossary On
Versions: 1 2 3 4 5 6 7 8 9 10 11 12 13 14 15 16 17 18 19 20 21 22 23 24 25 26 27 28 29 30 31 32 33 34 35 36 37 38 39 40 41 42 43 44 45 46 47 48 49 50
000
ASCA44 KEWX 021820
RWRMX

LATIN AMERICA AND CARIBBEAN REGIONAL WEATHER ROUNDUP
NATIONAL WEATHER SERVICE AUSTIN/SAN ANTONIO TX
100 PM CDT WED SEP 02 2015

NOTE: "FAIR" INDICATED FEW OR NO CLOUDS BELOW 12,000 FEET WITH NO
SIGNIFICANT WEATHER AND/OR OBSTRUCTIONS TO VISIBILITY.

BAJA CALIFORNIA

CITY           SKY/WX    TMP DP  RH WIND       PRES   REMARKS
LORETO         PTSUNNY   93  82  70 E8        29.85F HX 117
LA PAZ         PTSUNNY   90  70  51 S3        29.90F HX  95
MEXICALI       PTSUNNY   91  63  38 NE7       29.86S HX  92
S.J. DEL CABO  PTSUNNY   90  68  48 E12       29.92S HX  93
TIJUANA        MOSUNNY   73  55  53 S5        30.00F

NORTHWESTERN MEXICO

CITY           SKY/WX    TMP DP  RH WIND       PRES   REMARKS
CULIACAN       MOSUNNY   91  77  62 CALM      29.93R HX 105
DURANGO        PTSUNNY   79  45  29 E7        30.29F
GUAYMAS        CLOUDY    90  82  79 CALM      29.86S HX 111
HERMOSILLO     CLOUDY    90  77  66 SE6       29.95F HX 102
CD. JUAREZ     MOSUNNY   90  55  31 CALM      30.07F
LOS MOCHIS     CLOUDY    90  72  55 CALM      29.90F HX  96
OBREGON        PTSUNNY   91  68  46 S3        29.88F HX  95

NORTHEASTERN MEXICO

CITY           SKY/WX    TMP DP  RH WIND       PRES   REMARKS
CHIHUAHUA      PTSUNNY   88  46  23 N7        30.16F
MATAMOROS      PTSUNNY   81  79  94 S5        30.00F
MONCLOVA       MOSUNNY   84  68  58 CALM      30.01
MONTERREY      PTSUNNY   84  66  54 E8        30.02F
NUEVO LAREDO   PTSUNNY   91  72  52 CALM      30.00F HX  98
PIEDRAS NEGRAS MOSUNNY   88  70  55 SE9       30.04F HX  92
REYNOSA        MOSUNNY   84  72  65 S6        29.97F
SALTILLO       MOSUNNY   82  68  61 N7        30.19F
TORREON        PTSUNNY   88  55  33 CALM      30.11F
CD. VICTORIA   MOSUNNY   90  68  48 SE8       29.98F HX  93

WESTERN MEXICO

CITY           SKY/WX    TMP DP  RH WIND       PRES   REMARKS
AGUASCALIENTES MOSUNNY   75  57  53 CALM      30.31F
COLIMA         MOSUNNY   81  72  74 SW6       30.04F
DEL BAJIO      PTSUNNY   73  61  64 S6        30.34F
GUADALAJARA    PTSUNNY   75  59  57 E5        30.23F
MANZANILLO     MOSUNNY   93  82  70 SW9       29.89F HX 117
MAZATLAN       PTSUNNY   82  75  78 W6        29.90S
P. VALLARTA    PTSUNNY   86  73  66 SW7       29.92R HX  93
URUAPAN        MOSUNNY   77  64  65 SE9       30.22F
ZACATECAS      MOSUNNY   75  54  46 CALM      30.33F

CENTRAL MEXICO

CITY           SKY/WX    TMP DP  RH WIND       PRES   REMARKS
CUERNAVACA     PTSUNNY   73  63  68 CALM      30.22F
MEXICO CITY    PTSUNNY   68  54  60 CALM      30.38F
MORELIA        MOSUNNY   72  59  64 N7        30.29F
POZA RICA      PTSUNNY   79  73  83 CALM      30.00F
PUEBLA         CLOUDY    68  55  64 CALM      30.39F
QUERETARO      PTSUNNY   70  59  68 E9        30.35F
S. LUIS POTOSI PTSUNNY   75  54  46 CALM      30.28F
TAMPICO        MOSUNNY   86  75  70 S9        29.95F HX  95
TOLUCA         PTSUNNY   66  54  63 CALM      30.46S HAZE

SOUTHERN MEXICO

CITY           SKY/WX    TMP DP  RH WIND       PRES   REMARKS
ACAPULCO       PTSUNNY   88  75  66 SE6       29.91S HX  97
B. DE HUATULCO CLOUDY    82  72  69 SE12      30.03F
OAXACA         CLOUDY    75  59  57 W2        30.26F
P. ESCONDIDO   CLOUDY    84  75  74 SE14      30.05R HX  92
VERACRUZ       PTSUNNY   88  75  66 E5        29.94F HX  97
ZIHUATANEJO    MOSUNNY   93  77  59 S5        29.91F HX 107

YUCATAN PENINSULA

CITY           SKY/WX    TMP DP  RH WIND       PRES   REMARKS
CAMPECHE       PTSUNNY   90  79  70 E12       29.93F HX 105
CANCUN         MOSUNNY   90  77  66 SE10      30.02F HX 102
CHETUMAL       PTSUNNY   86  72  62 E6        29.98F HX  92
CD. DEL CARMEN MOSUNNY   90  77  66 SE9       29.93F HX 102
COZUMEL        PTSUNNY   86  77  74 E8        30.01F HX  97
MERIDA         PTSUNNY   91  77  62 E18       29.97F HX 105
MINATITLAN     PTSUNNY   86  72  62 NW9       29.89F HX  92
TAPACHULA      MOSUNNY   90  79  70 CALM      29.95F HX 105
TUX. GUTIERREZ PTSUNNY   81  66  61 SE8       30.04F
VILLAHERMOSA   MOSUNNY   90  73  58 NW6       29.96F HX  98

CENTRAL AMERICA

CITY           SKY/WX    TMP DP  RH WIND       PRES   REMARKS
BELIZE CITY    MOSUNNY   91  79  66 E13       29.95F HX 107
MANAGUA        PTCLDY    91  73  55 SE14      29.89  THUNDER HX 100

CARIBBEAN

CITY           SKY/WX    TMP DP  RH WIND       PRES   REMARKS
ARUBA          MOSUNNY   91  75  59 E18       29.86  HX 102
CURACAO        MOSUNNY   93  73  52 SE17      29.89F HX 102
KINGSTON       MOSUNNY   90  79  70 SE22      29.92F HX 105
NASSAU         PTSUNNY   88  75  66 NE5       30.06F THUNDER HX  97
SAN JUAN       MOSUNNY   90  79  70 NE15      29.97F HX 105
SANTO DOMINGO  MOSUNNY   90  75  62 S9        29.94F HX 100
ST. CROIX      MOSUNNY   88  77  70 SE9       30.01  HX 100
ST. KITTS      MOSUNNY   86  73  66 E10       29.97F HX  93
ST. MAARTEN    MOSUNNY   86  77  74 SE8       29.97F HX  97
ST. THOMAS     SUNNY     90  79  70 SE9       29.99F HX 105

$$




USA.gov is the U.S. government's official web portal to all federal, state and local government web resources and services.